Theta_e
291 292 291 292 291 290 291 290 291 291 292 292 288 287 291 291 286 284 289 291 289 292 294 296 297 298 298 299 300 301 302 302 303 304 302 303 304 304 304 305 305 305 305 306 307 307 306 306 305 306 305 305 307 308 308 308 310 310 311 313 312 312 313 314 315 316 317 318 320 322 324 324 324 324 325 325 325 325 324 324 324 322 321 319 319 319 319
290 290 291 292 290 290 290 290 290 291 291 291 292 292 292 291 290 291 291 291 290 294 295 296 299 300 300 300 302 301 300 301 301 301 302 302 302 302 302 303 303 304 304 305 306 306 305 305 305 304 306 305 305 306 307 307 309 309 310 311 310 311 310 312 314 315 315 317 317 319 320 321 322 324 323 323 324 323 322 322 323 323 322 321 320 319 318
287 289 290 291 290 289 288 290 290 290 291 291 292 291 291 292 291 292 291 289 288 295 297 297 300 301 300 300 298 298 299 300 301 301 301 302 301 301 302 302 302 303 305 305 306 306 306 305 305 305 306 305 305 306 307 307 307 309 309 310 311 311 310 311 312 313 314 315 316 316 318 319 321 321 321 322 323 323 322 321 321 321 320 320 319 320 319
283 288 288 288 289 289 287 287 288 288 288 286 288 287 291 289 286 289 289 286 287 294 297 298 298 299 298 298 298 299 300 301 301 300 301 301 301 301 300 301 302 302 303 304 304 305 305 305 305 304 304 304 304 304 306 306 307 308 310 311 311 311 311 312 311 311 312 313 313 315 316 316 318 320 321 321 320 321 321 319 319 318 317 317 318 319 318
282 287 288 286 285 284 280 282 285 288 289 290 291 292 293 292 292 287 285 286 293 296 296 295 296 297 297 298 298 299 301 301 301 301 301 300 300 300 300 300 301 302 302 304 305 306 305 305 304 304 304 304 305 306 306 307 308 309 309 310 310 310 311 311 311 312 312 312 312 313 315 316 318 319 319 320 320 319 319 320 319 318 318 318 318 317 316
281 285 284 285 281 275 278 289 294 292 289 289 288 287 290 293 294 290 293 293 295 295 295 294 294 296 297 299 301 302 302 301 301 300 300 300 300 301 302 302 302 303 303 304 305 306 306 306 305 306 306 305 306 307 307 308 308 308 307 308 310 310 310 310 310 311 312 312 312 313 314 315 317 318 318 318 319 320 319 319 318 317 319 318 318 316 313
281 284 282 278 273 276 287 292 293 292 291 290 289 290 292 292 293 293 292 292 293 295 295 296 297 298 299 299 300 301 302 303 301 299 299 299 300 300 301 302 302 303 304 305 305 306 305 305 306 306 305 306 306 306 306 306 306 306 308 308 309 310 310 311 311 311 311 311 312 313 313 314 316 317 317 319 318 318 317 317 317 316 317 317 315 312 308
284 281 279 271 275 285 290 291 292 295 291 291 290 288 291 292 291 293 291 293 295 296 296 296 298 298 298 298 299 300 302 303 301 300 299 300 300 300 301 301 302 303 303 303 304 305 306 305 305 304 305 306 305 305 306 306 306 306 307 307 307 308 308 310 310 311 311 311 311 312 312 314 314 315 316 318 318 317 316 317 318 318 317 315 311 306 303
278 280 280 279 286 285 287 286 287 290 286 289 287 282 287 292 292 292 292 293 294 296 296 297 298 298 297 296 296 299 301 302 302 300 299 300 300 300 301 302 302 304 305 304 305 306 306 305 305 305 305 306 306 305 305 305 305 306 306 307 307 308 308 309 310 310 311 311 311 311 312 312 312 314 315 316 316 316 315 315 315 314 311 308 306 302 299
284 279 278 279 278 275 281 289 293 295 295 295 294 288 285 292 293 293 293 292 293 294 295 295 296 298 294 291 292 297 298 299 299 299 300 300 300 300 301 302 302 303 304 305 305 305 305 305 305 305 306 305 305 305 305 305 305 305 305 306 307 307 307 309 310 311 311 311 310 311 311 311 312 313 315 316 315 314 314 313 311 309 307 303 301 300 298
282 279 276 276 273 278 287 288 291 294 294 296 295 287 282 289 292 292 293 292 293 293 293 294 295 293 288 290 292 296 297 298 299 298 299 299 300 300 300 301 301 302 304 304 303 304 305 304 305 306 305 305 305 305 305 305 306 305 306 307 307 307 308 309 310 310 311 311 311 310 310 311 312 313 313 314 313 314 313 310 306 303 301 299 298 299 299
281 280 277 276 280 279 286 290 291 293 294 293 289 277 278 285 290 291 293 291 292 293 293 294 293 291 287 290 293 296 298 298 299 299 298 298 299 298 299 300 301 301 302 303 304 304 303 304 305 305 305 305 305 305 305 306 306 306 307 307 308 309 309 310 310 311 311 311 311 311 311 311 312 312 313 311 311 309 306 303 300 298 297 297 296 297 298
280 279 279 281 282 287 290 290 291 293 294 291 279 275 280 287 289 290 292 292 293 293 292 294 290 293 295 294 296 298 298 297 297 298 299 299 299 298 298 299 299 300 300 301 301 303 303 304 305 305 305 305 305 305 306 305 305 306 308 308 309 309 310 310 310 310 311 311 311 311 312 311 312 312 310 307 305 303 301 299 297 296 296 297 296 297 297
279 280 278 278 282 286 290 290 292 293 288 278 277 283 289 290 290 291 291 291 293 294 293 292 293 294 295 296 296 296 296 297 297 296 296 297 298 299 299 299 299 301 301 301 302 303 304 304 304 305 305 304 304 305 305 305 306 307 308 308 309 309 309 308 309 309 309 310 311 310 311 311 311 309 307 305 302 299 298 297 296 296 296 296 296 296 298
281 280 277 276 273 284 291 290 289 290 281 283 286 289 290 291 291 290 290 290 291 293 292 294 294 294 295 295 295 296 296 296 296 296 296 296 296 298 299 300 300 299 299 299 300 302 304 304 305 305 305 304 304 305 304 306 307 307 308 308 307 307 306 306 307 307 308 309 309 310 310 310 309 305 303 301 299 297 296 296 295 294 294 294 294 294 294
277 277 275 275 282 286 291 290 282 286 287 290 291 291 289 292 291 290 290 290 291 292 293 292 293 294 294 295 295 296 296 296 297 297 297 298 297 297 298 298 299 300 300 300 301 302 303 304 305 305 305 304 304 304 305 307 307 307 306 306 306 305 305 306 306 306 307 308 308 310 309 307 305 302 299 297 296 296 295 294 293 293 294 295 295 295 295
280 278 281 286 288 290 291 291 290 291 292 292 292 292 291 290 291 293 291 291 292 292 292 292 292 291 293 293 295 294 295 295 296 296 296 297 297 297 297 298 300 300 299 300 301 302 303 304 305 305 305 304 304 303 305 306 305 305 305 305 305 304 305 305 306 306 306 307 307 307 306 304 301 298 297 297 296 297 297 296 295 294 294 295 295 295 295
287 288 288 289 289 290 290 291 291 290 291 293 293 292 291 292 293 293 292 293 293 293 294 292 293 293 293 292 293 294 294 295 296 296 296 297 298 298 299 299 299 300 301 302 301 301 302 303 304 304 305 305 303 303 305 305 305 305 305 304 304 304 304 304 304 305 304 303 302 301 300 300 299 298 297 297 296 297 296 295 294 294 293 293 293 294 294
281 277 287 286 287 289 290 290 291 293 293 292 293 292 292 292 293 293 294 293 293 294 294 293 293 293 294 294 294 295 295 295 296 296 296 297 298 298 298 299 300 300 300 299 300 301 301 303 303 304 304 305 305 305 304 305 305 305 304 303 302 301 301 302 303 301 299 299 299 298 298 298 298 298 299 298 297 295 294 294 294 294 293 293 293 292 292
280 280 285 287 289 289 290 290 290 290 291 292 293 293 293 293 293 293 293 294 293 294 293 293 293 293 294 293 294 294 294 295 295 295 296 297 298 299 300 300 300 300 300 300 300 300 300 302 303 304 305 305 305 305 305 305 305 304 302 301 300 300 299 299 299 299 297 291 294 296 296 297 296 297 297 296 294 292 293 292 292 292 291 291 292 293 292
283 286 287 287 288 288 289 290 291 291 291 291 291 292 292 292 292 292 293 294 293 293 293 294 293 292 293 294 294 293 294 294 295 295 296 297 298 298 299 300 300 299 300 300 300 300 301 303 304 304 305 305 305 305 304 305 304 303 300 297 298 297 297 297 296 296 297 297 296 296 296 296 296 296 296 296 295 296 297 296 294 293 292 293 293 294 294
279 280 283 286 280 281 286 288 290 291 292 291 291 291 291 292 292 292 291 292 293 294 294 293 293 292 292 294 294 294 294 294 295 296 296 297 298 298 299 299 300 300 300 301 302 301 303 304 304 304 304 303 304 303 303 302 302 300 298 296 296 295 295 295 295 295 295 296 297 295 294 294 295 294 288 289 294 295 291 289 289 290 291 295 295 295 293
279 284 286 287 286 286 287 288 290 291 292 292 291 291 291 292 292 293 293 292 292 293 293 294 293 293 294 294 295 295 295 295 296 297 297 297 297 298 299 299 300 300 300 301 302 302 302 303 303 304 303 303 302 301 300 300 300 298 296 295 296 296 295 295 294 294 294 295 295 296 295 295 295 293 294 292 287 287 289 289 289 289 288 289 289 290 292
286 287 287 288 286 284 287 290 291 291 292 292 291 292 293 293 292 293 293 293 292 293 294 295 295 295 295 295 296 295 295 296 296 297 298 299 299 300 300 300 300 300 300 301 301 301 303 303 303 303 302 301 300 299 299 299 299 297 296 296 295 295 295 294 294 295 295 294 295 295 294 293 293 293 292 291 291 289 287 288 288 288 288 288 288 288 288
284 288 289 289 289 289 290 291 291 292 292 292 292 292 293 291 292 292 291 291 293 293 293 293 295 296 296 296 296 296 295 296 297 297 297 298 297 298 299 299 300 300 300 301 302 302 303 303 303 302 301 299 299 299 300 300 300 299 298 298 297 297 296 295 295 294 294 294 294 294 293 293 293 293 291 290 289 290 291 287 287 287 287 287 287 287 287
290 289 290 290 290 290 290 290 290 292 292 292 292 292 293 293 293 292 292 292 292 293 293 294 294 295 297 296 296 296 296 297 297 296 298 298 298 299 299 299 299 300 300 300 300 300 300 301 302 302 299 298 298 299 300 299 299 299 298 298 296 296 295 295 294 295 295 295 293 293 294 294 294 293 292 292 291 290 289 289 289 289 287 287 287 287 287
291 291 289 287 286 287 289 287 287 290 291 292 292 292 292 293 292 293 292 292 292 293 293 294 295 296 296 296 296 296 295 296 296 296 296 296 296 297 297 298 298 298 298 298 299 298 297 299 300 300 298 297 298 299 300 300 299 298 298 298 297 291 289 292 295 295 295 294 293 293 294 295 294 293 294 293 293 292 291 290 289 290 289 289 288 287 290
290 290 289 284 283 285 286 289 290 291 291 290 290 290 290 291 291 291 290 290 291 293 294 295 295 295 294 295 295 294 295 294 293 294 294 294 295 296 296 297 297 297 297 297 297 298 298 299 300 299 297 297 298 298 300 300 299 298 298 298 297 297 296 295 296 296 296 296 296 296 296 296 297 296 295 294 293 294 293 293 293 293 292 292 291 288 285
289 289 290 290 289 290 291 291 291 289 289 290 290 290 290 289 290 290 290 291 292 292 292 293 294 295 294 294 293 292 292 291 290 289 289 290 292 293 294 295 296 296 296 296 297 298 298 299 300 298 296 297 298 299 300 300 299 298 298 298 297 297 297 296 296 297 297 297 297 297 293 294 295 296 295 295 294 297 295 295 294 296 295 293 291 290 288
288 289 289 289 289 290 289 288 288 288 288 289 289 289 290 290 289 289 290 291 292 291 292 293 293 292 290 290 290 289 288 288 288 289 290 291 292 292 293 293 294 294 295 295 296 297 298 299 298 296 296 297 298 299 300 300 300 298 298 298 298 297 297 297 297 297 296 296 296 292 294 295 295 295 294 295 295 294 295 293 294 294 294 294 292 293 292
287 288 288 289 289 289 288 287 288 288 289 289 290 289 290 290 290 289 290 290 289 289 289 288 287 287 287 287 288 288 288 288 288 288 288 288 289 289 290 291 291 291 291 293 296 298 298 298 297 296 297 298 299 299 300 300 300 300 299 299 299 292 289 290 292 297 296 294 294 294 295 294 295 293 292 294 293 294 294 295 293 293 294 295 293 294 294
286 287 288 288 288 288 287 288 288 288 288 289 288 288 288 289 289 288 288 287 287 288 287 286 286 285 286 288 288 287 287 286 286 285 286 286 286 287 287 288 288 287 288 289 291 293 296 296 294 295 298 299 300 300 301 301 301 299 299 296 299 297 292 289 293 293 293 293 294 295 293 294 294 294 293 294 294 294 294 294 294 294 293 293 292 292 292
286 285 286 287 287 287 286 287 287 287 288 288 287 289 289 288 288 286 286 286 286 286 285 285 286 286 286 286 286 285 285 285 284 284 284 284 285 285 286 286 286 286 286 286 288 290 292 293 294 296 297 298 299 300 301 302 300 301 299 297 297 295 290 290 291 293 293 293 294 295 293 296 295 296 295 294 296 294 295 294 294 293 293 294 295 292 287
286 285 286 287 287 285 285 286 287 287 288 289 289 288 287 287 286 286 286 286 286 285 285 285 286 286 286 285 284 284 284 283 282 282 282 283 284 284 285 285 285 285 285 286 287 288 290 292 294 295 297 297 297 298 298 298 297 297 296 295 293 292 292 292 292 294 294 294 294 296 296 293 297 293 295 294 294 294 293 293 293 293 293 294 295 292 285
290 289 289 289 289 289 289 287 287 287 288 287 286 286 286 286 286 285 285 285 285 285 286 286 286 285 285 284 284 283 283 282 281 281 282 282 283 284 285 285 285 285 284 285 286 286 287 290 292 293 294 295 295 295 296 296 296 296 295 294 293 293 294 293 294 295 295 295 296 296 294 294 293 291 292 294 294 294 292 292 292 292 292 292 293 293 290
289 289 289 289 289 289 289 288 288 287 286 286 285 285 285 285 285 286 285 285 286 286 285 285 284 284 284 284 283 283 283 283 282 282 282 282 283 284 284 284 284 284 283 283 284 286 287 287 286 287 290 291 292 293 293 294 294 294 295 295 293 292 292 292 292 292 293 294 293 292 291 289 290 291 292 294 293 293 292 291 291 291 292 291 291 291 291
290 289 288 288 288 288 287 287 286 286 286 285 285 284 285 285 285 286 286 286 285 285 285 284 284 283 283 283 284 284 284 284 284 283 282 283 283 283 282 282 283 283 283 281 283 286 286 286 286 286 290 290 289 290 289 287 294 295 295 294 294 293 292 292 292 292 292 292 292 291 291 291 291 291 291 293 292 291 291 291 290 291 290 290 289 290 290
289 288 288 287 287 286 286 286 287 286 286 285 286 286 286 285 285 285 285 285 285 284 284 284 284 284 284 284 284 284 284 284 284 284 284 283 283 281 281 281 281 282 281 281 284 285 286 286 286 287 288 288 288 289 288 286 287 293 292 291 291 291 292 292 292 292 292 292 290 292 290 290 291 291 291 291 290 289 288 288 288 289 289 289 289 288 289
288 288 288 287 287 286 286 286 286 286 287 286 286 285 286 286 286 286 285 285 285 285 285 284 284 284 283 283 283 283 283 284 284 284 284 283 283 281 280 281 281 282 283 285 285 285 285 286 287 287 287 287 288 288 287 286 287 291 291 291 290 290 291 291 291 290 290 291 291 290 290 288 288 288 288 289 288 287 286 285 286 287 287 288 288 288 287
287 286 286 286 285 286 286 286 286 286 287 288 287 286 286 286 286 285 285 285 285 285 285 285 284 283 283 282 282 282 283 283 284 284 284 283 283 282 282 281 282 283 285 285 286 285 285 285 286 286 286 286 287 288 287 287 287 289 289 289 290 290 291 291 292 291 291 291 289 287 288 287 286 286 287 287 287 287 287 286 286 286 286 287 288 287 286
287 286 287 287 286 287 287 287 286 287 287 287 287 287 287 286 286 285 284 284 285 285 285 285 284 283 283 283 283 283 283 283 283 283 283 283 282 281 280 279 281 283 284 285 285 285 285 284 285 286 286 286 287 286 289 287 289 289 288 287 287 288 289 289 289 289 288 288 289 289 289 288 287 287 287 287 287 287 287 287 287 287 287 287 286 286 286
287 288 287 287 287 287 288 288 288 286 286 286 287 287 287 287 286 285 286 286 285 285 285 284 284 284 285 285 285 284 284 283 283 282 282 281 280 281 280 280 282 283 283 284 284 284 285 285 284 284 285 287 287 285 286 289 289 289 289 289 289 288 289 289 288 288 288 289 289 289 288 289 288 287 287 287 287 286 286 287 287 287 287 286 286 286 285
288 288 288 288 288 288 287 287 287 287 287 288 288 288 288 288 287 287 287 286 286 285 285 285 285 285 285 285 285 284 284 285 284 283 282 282 282 282 281 281 283 283 283 284 284 284 284 284 284 285 284 285 287 285 286 290 290 289 289 288 288 287 288 288 288 288 289 289 288 288 288 288 288 287 286 286 286 286 286 286 286 285 285 285 285 285 285
287 288 289 288 288 289 290 289 289 289 287 288 288 288 288 288 287 286 286 286 286 286 285 285 285 285 285 285 285 284 283 284 284 284 283 282 282 282 283 282 282 283 283 284 284 284 284 284 284 283 284 284 284 285 288 289 289 289 288 288 287 287 287 287 287 287 287 287 287 287 287 286 286 286 286 286 285 285 285 284 285 285 285 285 286 285 285
287 287 289 289 289 290 290 290 289 288 288 289 288 288 288 287 287 287 286 286 286 286 286 286 286 285 285 285 285 284 284 284 283 283 282 281 280 279 282 282 282 282 283 283 284 283 284 283 283 282 283 284 284 285 288 288 288 288 288 287 287 287 287 286 286 286 286 287 286 286 287 287 286 286 286 285 284 284 283 284 284 284 284 284 284 284 283
287 288 289 287 289 290 290 290 289 289 288 287 287 287 287 288 287 287 287 286 286 286 286 286 286 286 287 287 287 286 286 285 285 285 283 282 280 280 282 282 282 281 282 282 283 283 283 281 281 282 283 283 284 287 287 287 287 287 287 286 286 286 286 286 286 286 286 285 286 286 286 286 287 286 286 285 284 283 282 282 283 284 283 283 283 282 282
287 287 288 288 289 291 291 290 290 290 289 288 286 286 287 288 287 287 287 287 287 286 286 286 286 286 286 285 285 286 286 285 285 285 285 284 284 282 282 281 281 281 282 282 282 282 281 282 281 282 282 283 284 286 286 286 287 287 286 286 286 285 285 285 285 285 285 285 285 285 284 285 286 286 285 283 283 282 283 282 282 282 281 280 280 280 280
287 286 286 287 289 290 290 289 289 289 288 287 287 287 288 288 288 288 288 288 287 287 287 287 286 286 286 286 285 286 286 286 283 283 286 285 284 283 283 282 281 281 282 282 281 281 280 280 281 282 282 283 285 285 285 285 285 285 285 285 285 285 285 285 284 284 285 285 285 286 285 285 285 284 283 283 282 282 281 281 281 281 281 280 280 280 279
288 287 287 288 289 289 290 290 289 288 288 288 288 288 288 288 288 288 287 287 287 287 287 287 287 286 286 285 285 285 285 286 284 282 284 285 285 284 283 282 281 281 282 283 283 282 281 280 281 282 283 283 285 285 285 285 284 284 284 284 284 284 284 284 284 285 285 284 284 284 285 284 284 284 283 283 282 281 280 280 280 280 279 280 280 279 279
289 289 288 288 289 290 291 290 289 289 288 289 288 288 289 289 287 287 287 287 286 286 287 286 286 286 286 286 286 286 286 285 285 285 285 285 284 284 283 282 282 281 281 282 283 282 281 281 281 282 283 284 284 284 284 284 284 283 283 283 283 283 282 282 282 282 283 283 283 283 283 283 284 282 283 284 283 283 283 282 281 278 275 278 279 279 278
289 289 290 290 291 291 292 291 290 289 289 289 290 288 288 288 286 286 287 287 287 286 286 286 286 286 286 286 286 286 285 285 284 283 285 284 283 282 282 282 282 282 283 282 282 282 282 282 282 282 283 283 283 283 282 282 283 283 282 283 282 283 283 283 283 282 282 282 283 283 282 282 282 282 282 282 281 281 280 279 279 280 280 280 280 280 279
291 291 291 291 291 291 291 291 290 291 290 289 289 288 288 288 287 286 286 283 287 286 286 285 284 285 286 285 284 284 284 284 284 284 283 284 284 284 283 282 283 282 283 283 283 283 283 282 280 280 281 283 283 283 282 281 281 282 281 281 282 282 281 282 283 283 282 281 281 280 279 279 280 281 281 280 280 279 279 279 279 280 280 280 280 279 279
Wind_Speed
12 11 11 8 7 9 10 11 11 11 9 9 7 8 13 13 9 12 9 11 10 10 8 8 11 11 10 11 10 4 3 6 6 7 7 7 6 5 4 4 5 5 5 5 5 6 6 6 6 6 6 6 6 6 6 6 5 5 4 4 4 3 3 3 3 3 3 3 4 4 6 7 8 9 10 10 9 9 9 11 11 12 13 15 14 14 14
12 12 11 10 10 11 12 13 14 14 14 13 12 14 13 15 15 15 13 12 11 9 9 12 4 2 3 1 5 4 6 7 7 8 7 7 6 5 4 4 4 4 4 5 5 5 6 6 6 6 6 6 6 6 6 6 6 6 5 5 5 5 5 4 4 4 4 5 5 5 5 6 6 6 7 7 7 8 10 11 11 12 11 12 13 13 14
10 12 13 12 11 12 15 14 14 15 13 13 14 14 13 12 15 13 14 12 12 10 12 14 5 1 1 4 5 6 7 7 8 8 8 7 5 4 4 4 3 4 3 4 4 4 5 6 6 6 6 6 6 5 5 6 5 5 5 5 5 5 5 5 5 5 5 4 5 6 6 6 5 6 6 6 7 8 10 10 10 9 9 11 13 10 11
9 9 11 11 12 13 15 15 14 14 13 13 11 10 9 9 10 12 11 12 10 9 13 14 14 11 10 11 10 8 7 8 8 9 8 7 6 5 4 3 3 3 3 3 4 5 5 5 5 6 7 6 5 6 6 6 6 6 5 5 5 5 5 6 6 6 6 6 6 6 6 7 7 6 6 7 8 8 8 9 8 8 10 11 11 11 12
9 8 4 5 4 7 11 14 15 16 17 16 14 13 12 12 11 10 11 12 8 5 5 4 8 9 8 7 7 7 8 8 8 8 7 7 5 4 3 3 2 3 3 3 3 4 4 5 5 7 7 7 6 6 7 6 6 5 5 5 6 6 6 6 7 7 7 7 7 6 6 6 6 6 7 7 8 8 9 9 9 10 11 12 13 14 13
7 1 2 2 6 11 8 5 4 4 10 11 14 12 14 13 10 9 8 9 5 7 6 7 10 9 5 3 1 2 6 7 8 7 6 5 4 3 3 2 2 3 3 3 3 3 3 3 5 5 5 5 5 6 6 6 6 6 6 6 6 6 7 7 6 7 7 7 7 7 7 7 6 7 8 8 8 7 8 9 10 10 11 12 13 13 11
8 3 1 6 10 10 4 2 3 1 2 4 6 7 4 4 4 6 9 9 9 8 9 6 2 0 1 1 3 4 5 7 7 7 5 4 3 2 2 2 3 3 2 2 2 3 4 5 5 5 6 6 7 8 8 8 8 8 7 7 7 7 7 7 7 7 7 7 8 8 8 7 7 7 8 7 8 8 8 9 10 10 11 12 12 10 11
6 6 6 6 6 5 3 2 2 2 2 3 4 4 1 1 1 2 3 3 3 2 2 4 3 2 2 3 2 3 6 7 7 4 3 3 2 3 3 3 4 4 4 4 4 4 4 5 6 7 7 7 8 9 9 9 9 9 9 9 9 8 8 8 8 7 7 8 8 8 8 8 8 8 8 8 8 7 8 8 8 9 9 10 10 10 11
9 8 9 12 8 9 11 9 3 2 2 2 4 7 3 4 3 3 3 2 3 1 1 2 3 4 6 5 4 3 5 5 2 1 2 3 3 3 3 4 4 5 4 5 5 4 5 6 7 8 8 8 8 8 9 9 10 10 9 9 10 9 9 9 8 8 8 8 8 8 9 9 9 9 8 8 7 6 8 8 8 8 8 8 9 10 11
7 9 10 9 9 10 2 6 4 3 1 3 3 3 4 5 3 2 2 3 2 2 1 0 2 5 7 9 5 6 6 4 2 2 2 2 3 4 5 5 5 5 5 5 5 5 7 7 8 8 8 8 8 9 9 10 10 10 10 10 10 10 10 10 9 9 9 9 9 9 9 10 9 9 8 6 7 6 7 9 8 8 9 9 9 10 11
7 7 9 9 10 8 5 4 3 3 2 2 3 2 7 5 5 4 4 3 3 3 3 4 4 7 9 8 7 4 3 3 3 4 4 5 5 6 6 6 7 6 6 6 7 7 8 9 8 9 9 9 8 9 9 10 10 10 10 11 11 11 11 10 10 10 10 10 10 10 10 10 9 8 8 8 4 3 4 5 7 8 9 10 10 9 9
9 9 8 10 6 7 1 1 2 4 3 3 3 7 4 4 8 6 4 5 4 5 5 5 5 6 7 7 4 6 5 5 4 5 6 7 7 8 8 7 7 8 8 7 7 7 8 9 10 10 9 8 8 9 9 9 10 10 10 11 11 11 11 11 10 10 9 10 10 10 11 10 9 8 2 6 6 5 5 6 8 8 9 9 10 8 8
9 11 10 9 8 2 6 3 5 4 1 2 6 10 3 4 7 8 8 7 6 6 7 5 6 5 5 7 8 7 6 6 6 6 7 7 8 9 9 9 8 9 8 8 8 9 8 9 9 9 8 8 9 9 9 10 11 10 11 11 11 11 11 11 11 12 11 11 11 11 10 10 9 5 5 7 9 8 8 8 10 9 10 9 9 8 7
9 9 10 10 6 5 3 4 2 2 2 5 6 5 5 5 8 8 9 10 9 7 7 6 7 8 8 8 8 9 10 9 8 9 9 9 9 9 9 9 9 8 8 9 9 10 9 10 10 9 9 9 10 10 10 11 11 11 11 11 11 12 13 13 13 12 12 11 11 11 11 11 6 6 7 9 9 10 9 10 11 10 9 9 8 7 5
6 7 9 8 10 3 5 4 2 4 3 3 5 6 5 6 8 10 9 8 9 9 9 9 9 10 9 9 9 9 10 10 10 11 11 11 11 10 10 10 9 8 9 10 10 10 10 10 9 9 9 11 11 10 11 12 11 11 11 12 13 14 15 15 14 14 14 15 12 10 8 7 7 8 8 9 9 10 11 11 11 12 11 10 9 7 6
9 8 7 5 3 4 1 6 3 2 4 7 8 9 10 7 8 7 6 6 7 8 9 10 11 11 11 11 10 11 11 11 12 11 12 12 12 12 12 12 11 10 10 10 11 11 11 10 10 9 9 10 10 11 13 11 11 11 12 13 14 15 15 15 15 15 14 12 10 8 7 7 10 11 10 11 11 11 11 12 11 11 9 9 9 9 9
2 5 7 6 3 7 8 6 6 8 8 8 9 9 10 11 9 8 8 9 8 8 9 10 10 11 11 12 11 12 12 12 13 13 13 12 12 11 11 11 11 11 11 11 11 12 11 12 11 10 10 10 12 13 12 12 13 13 14 14 14 15 15 15 14 13 11 7 5 6 7 10 11 11 12 12 11 10 10 10 10 9 8 8 8 7 7
10 12 13 13 13 12 10 7 9 10 9 9 7 8 9 9 9 10 11 11 12 12 11 11 11 11 11 12 13 13 14 14 14 14 14 14 13 13 12 12 11 10 10 11 12 13 13 13 12 11 10 10 13 13 11 12 13 13 13 14 15 15 14 13 11 8 4 4 6 6 8 8 11 11 12 12 11 11 9 8 8 8 8 8 8 8 7
8 6 1 4 8 10 12 13 12 12 11 9 8 9 10 11 11 12 12 12 13 13 13 14 14 15 14 14 14 14 13 13 14 14 14 14 13 13 13 12 12 12 12 12 12 13 13 12 11 11 11 10 11 10 10 11 12 12 13 14 14 13 11 9 6 4 6 7 6 7 8 8 8 8 8 9 10 10 9 9 8 7 7 7 7 7 6
9 10 11 13 13 12 12 11 11 11 10 10 11 11 11 12 12 13 13 13 14 13 14 14 15 16 15 15 15 14 14 14 14 14 14 14 13 13 13 13 13 13 13 13 13 13 12 11 11 10 10 10 9 9 10 11 12 12 12 11 10 8 5 5 6 7 7 10 11 9 8 9 9 9 8 8 9 6 5 4 5 7 6 6 7 7 7
9 12 13 12 11 12 13 11 11 10 11 12 14 14 14 15 16 16 16 15 15 14 15 15 16 17 17 17 17 17 15 15 15 15 14 14 14 14 14 14 14 14 13 13 14 13 12 11 10 10 9 8 8 9 10 11 10 11 8 6 4 5 6 8 8 8 9 8 8 9 9 9 10 10 9 8 8 7 5 3 4 5 6 7 6 6 4
8 8 8 11 11 10 11 13 15 16 15 15 16 16 17 17 17 17 18 18 17 17 17 17 16 17 16 17 16 17 16 15 16 16 15 15 15 15 14 13 14 14 13 13 13 12 11 10 10 10 9 7 6 8 8 6 6 5 2 5 7 7 8 8 8 8 7 8 7 10 12 11 9 9 13 14 8 7 5 11 15 12 7 5 5 6 6
9 10 12 12 13 15 15 15 17 18 17 17 18 16 16 17 17 15 16 17 17 17 17 16 16 16 15 16 15 16 15 15 15 15 16 16 15 15 15 15 14 14 14 13 12 12 11 10 10 8 7 3 3 4 2 2 1 4 7 6 6 6 5 5 7 9 9 8 7 8 9 10 9 9 8 11 17 16 12 11 11 12 11 11 11 9 7
13 12 12 14 15 16 17 19 19 18 16 15 16 16 15 15 15 15 15 15 16 16 16 15 14 15 16 16 16 17 18 17 17 16 16 16 16 15 13 13 13 14 13 12 12 12 10 9 9 7 3 2 1 3 4 4 6 7 6 5 6 6 5 6 9 9 7 6 7 7 7 7 9 10 10 9 7 11 12 10 9 10 10 8 8 8 8
13 14 16 16 16 17 16 17 17 17 16 16 15 14 14 15 15 15 16 17 16 18 18 18 17 15 16 17 16 17 17 16 16 15 16 15 14 14 13 13 13 13 12 11 10 10 9 9 7 5 3 5 6 6 5 6 7 8 8 8 7 6 7 8 8 8 6 6 6 6 8 8 8 9 9 8 7 5 6 10 10 8 6 6 7 7 7
13 15 15 17 17 16 16 16 16 15 13 13 14 15 16 16 16 16 16 16 16 17 18 18 19 17 15 15 14 15 15 16 15 14 14 13 12 12 12 12 11 11 11 11 11 11 10 10 8 3 7 9 8 6 5 6 6 6 7 8 9 8 8 7 6 6 6 8 8 7 8 9 9 9 9 8 8 8 6 4 4 5 5 4 4 6 4
14 14 15 16 15 13 12 13 13 15 17 17 17 17 16 16 14 12 12 13 14 15 15 16 16 15 14 14 15 15 14 14 14 13 12 13 13 12 12 11 12 12 12 12 12 12 11 10 9 4 11 10 8 7 6 5 4 4 3 6 6 5 4 5 8 8 8 8 8 8 8 8 8 8 7 7 8 8 8 6 5 5 5 3 3 3 2
14 13 11 12 13 13 14 15 17 16 15 15 16 15 14 13 13 14 14 14 13 13 13 13 14 13 13 13 14 13 12 12 11 9 9 9 9 9 10 12 11 12 13 14 13 13 11 10 9 7 13 10 9 9 6 4 3 2 3 6 6 5 2 1 7 7 8 8 8 8 8 8 8 7 7 8 8 7 8 8 7 5 4 4 4 5 4
13 12 11 12 14 14 14 13 13 13 14 14 13 13 13 14 14 14 14 13 12 12 12 12 12 12 11 10 9 9 7 5 5 6 6 7 9 10 11 12 12 13 13 13 12 10 9 9 8 12 13 10 10 9 6 4 2 4 5 5 6 6 5 4 3 2 2 4 6 6 6 6 6 6 5 5 4 4 4 4 3 5 3 4 5 5 6
13 12 12 13 14 15 14 13 12 12 12 12 12 12 11 12 12 12 11 12 10 10 10 10 8 5 6 4 4 4 5 5 6 6 7 7 9 9 10 10 10 9 9 9 9 9 9 8 10 17 14 10 11 10 7 5 4 5 5 5 6 6 6 6 4 2 1 2 3 2 3 5 5 4 4 4 3 3 2 1 2 3 3 5 7 4 5
13 13 14 14 14 12 11 12 12 11 11 10 11 12 12 11 11 11 10 7 6 5 7 7 6 6 5 5 4 3 3 4 4 5 6 6 6 6 7 6 6 4 2 3 5 8 9 8 12 12 12 12 12 10 8 5 4 4 6 6 5 3 5 7 6 5 4 3 3 6 6 6 5 5 4 3 2 2 3 2 3 3 3 4 3 1 1
14 13 13 11 10 11 12 11 12 11 9 10 11 10 11 10 8 6 5 5 6 7 7 8 7 7 5 4 4 4 5 6 6 6 7 7 7 8 7 6 5 5 5 6 6 5 8 15 14 11 9 10 9 8 6 6 4 6 7 6 6 4 5 7 5 6 5 4 5 7 7 7 5 4 4 3 3 3 2 2 2 3 2 2 1 2 2
12 13 12 12 12 12 12 12 10 11 10 11 8 6 5 6 7 6 7 7 7 7 7 7 7 7 7 7 7 6 5 5 7 8 8 8 8 8 8 6 6 8 8 8 8 8 8 10 10 8 8 7 5 3 3 4 4 4 3 3 3 4 6 5 4 6 6 6 7 6 4 5 3 3 1 0 0 1 1 0 1 1 1 1 3 4 4
10 11 13 13 12 11 12 13 11 10 9 7 5 6 6 7 6 6 8 8 8 9 9 9 9 9 9 8 9 9 8 8 8 8 10 10 9 8 6 6 6 9 10 10 10 10 9 7 8 9 8 7 5 4 2 2 3 2 2 3 4 5 5 5 6 5 6 4 3 5 4 3 3 2 3 2 2 1 1 1 1 1 1 1 3 5 6
11 11 11 11 11 11 10 10 9 9 6 4 7 7 7 7 8 8 8 9 9 9 8 8 8 8 8 8 10 9 10 10 9 10 9 10 10 9 6 5 8 11 14 14 12 11 10 10 10 9 8 7 6 5 4 4 4 4 5 5 6 5 5 4 4 5 5 5 4 4 3 4 4 6 5 4 3 3 3 4 4 3 2 1 2 1 4
12 10 9 8 7 7 6 5 5 7 8 8 8 8 8 8 9 10 10 10 8 8 8 8 7 8 9 10 10 10 10 10 10 11 11 10 9 8 8 9 11 13 12 13 12 10 11 12 13 12 10 8 7 8 6 5 6 6 6 6 6 6 6 6 6 6 6 6 6 6 5 7 7 6 5 4 4 5 4 3 3 2 2 2 2 2 1
9 8 6 4 4 6 7 7 7 8 9 9 8 8 9 9 9 9 9 9 8 7 7 6 7 9 10 9 9 9 9 10 10 9 9 8 7 8 10 11 9 6 10 13 12 12 13 13 13 13 11 10 10 10 10 10 6 6 6 6 7 7 6 6 6 6 7 7 6 5 6 5 4 3 5 5 4 4 4 3 4 3 2 2 2 2 2
6 7 6 6 6 7 8 8 8 8 10 10 9 10 9 8 8 8 8 8 6 6 5 6 7 7 7 9 10 11 11 11 11 11 11 12 11 11 10 11 12 14 15 11 9 10 10 11 14 13 12 11 11 11 10 11 7 7 7 7 7 7 6 6 7 6 6 6 6 6 5 4 3 3 4 5 5 5 5 4 4 2 2 2 2 2 2
7 6 7 8 8 9 8 7 5 5 9 10 10 9 8 8 8 9 9 8 7 6 6 6 7 7 8 9 10 10 11 10 10 10 11 10 9 11 13 14 13 14 11 9 10 10 10 11 12 12 11 10 11 11 9 11 11 9 8 8 7 7 6 6 6 7 7 6 6 6 6 5 5 5 4 5 5 5 6 6 5 4 2 2 2 2 3
7 8 7 7 7 6 6 7 7 8 8 8 8 9 7 8 8 8 8 8 7 6 6 6 7 7 8 8 8 8 9 9 9 9 9 8 8 8 8 13 16 15 14 13 12 12 13 14 13 11 10 9 7 5 6 8 8 8 8 7 7 6 6 6 6 6 6 6 7 7 7 7 7 6 6 5 5 5 4 4 4 4 3 3 3 3 4
7 6 6 6 6 7 8 7 8 9 8 8 8 8 7 7 7 8 8 7 6 7 7 6 6 7 8 8 8 8 8 9 10 10 9 8 9 9 11 12 13 13 13 11 11 11 14 14 12 10 9 8 8 6 6 7 7 7 8 8 8 7 7 7 7 7 6 7 6 6 6 6 6 7 6 6 6 5 5 4 4 4 4 4 4 4 5
6 7 6 6 7 7 8 8 8 8 8 8 8 7 7 6 7 7 6 6 6 6 7 9 9 7 6 6 6 7 9 10 11 11 12 12 11 9 10 11 11 12 13 12 11 11 11 11 12 11 9 8 7 8 6 7 7 7 7 7 8 7 7 7 7 7 7 7 7 7 7 7 7 6 6 7 6 6 6 5 5 5 5 5 6 6 6
4 6 7 7 7 7 6 6 6 6 8 7 7 6 5 5 6 6 6 6 6 7 7 7 7 6 7 6 6 6 6 6 8 9 10 11 12 12 10 8 9 11 12 10 10 9 10 10 10 10 11 9 7 7 6 8 8 8 8 8 8 8 8 7 7 7 7 7 7 7 7 7 6 6 6 6 5 6 6 6 6 6 6 6 6 6 6
3 3 4 5 6 6 6 6 6 6 6 6 5 5 6 6 6 7 7 7 7 8 8 8 8 8 8 8 8 8 8 7 7 6 6 7 9 11 12 9 9 10 13 9 9 9 9 10 9 10 11 11 10 9 8 8 8 8 9 8 8 8 8 8 8 7 7 7 7 7 7 7 6 6 6 5 5 5 5 5 5 5 5 5 5 5 6
2 2 5 5 5 4 5 6 6 6 5 5 5 6 7 7 7 7 7 7 8 7 7 7 7 7 7 8 8 8 8 8 9 8 7 8 9 9 9 9 9 9 9 10 9 9 10 10 10 13 10 10 9 9 8 8 9 9 9 9 8 8 8 8 8 8 8 8 8 7 7 6 6 5 5 6 5 5 5 4 4 5 4 4 5 5 5
2 2 4 4 4 4 4 5 5 4 6 6 6 6 6 6 6 6 6 7 7 7 7 7 7 7 6 5 4 6 7 8 9 9 10 9 9 7 8 9 9 8 9 10 9 9 9 12 14 13 12 10 8 8 8 8 8 8 8 8 8 8 8 8 8 8 7 7 7 6 6 6 6 6 5 5 4 4 4 4 4 4 4 4 4 4 5
2 2 2 2 2 4 5 4 3 3 4 5 4 4 4 5 5 5 5 5 5 5 5 6 7 8 8 9 8 5 5 6 7 7 7 7 7 7 7 8 8 8 9 10 9 9 8 8 10 11 10 8 8 8 8 8 8 8 8 8 8 8 7 7 7 7 7 7 7 7 7 6 5 5 5 4 4 4 4 4 4 3 3 4 4 4 5
3 2 2 2 3 4 4 4 5 4 4 4 5 5 4 4 4 4 4 4 4 4 5 5 6 7 8 8 8 8 7 4 5 7 6 6 7 7 8 7 7 6 4 9 10 10 12 11 11 10 8 7 8 8 8 8 8 8 8 8 7 7 6 6 6 5 5 5 5 5 5 4 5 4 4 4 3 3 3 3 3 3 3 4 4 4 5
5 5 4 3 4 5 5 5 5 4 4 4 4 4 4 4 4 4 3 3 3 4 4 5 5 5 6 7 7 7 7 8 7 6 6 6 6 6 6 7 7 7 7 7 8 8 8 8 9 8 8 8 7 8 8 8 8 7 7 6 6 6 6 5 5 4 4 5 5 4 4 4 4 3 3 3 3 2 2 2 2 3 3 3 3 3 4
7 7 6 6 6 7 7 6 5 4 4 4 3 4 4 3 3 3 2 2 3 2 3 3 3 4 4 5 5 5 6 6 6 5 5 6 6 6 6 7 7 9 9 7 7 7 7 8 10 10 10 8 9 9 8 8 8 7 6 7 6 6 6 6 6 6 5 5 5 4 4 3 3 3 2 3 2 2 2 2 2 1 3 3 1 3 3
6 6 6 6 6 5 6 4 2 4 4 4 3 3 3 1 3 2 2 1 2 2 3 3 3 3 3 4 4 4 4 5 5 5 4 5 6 6 5 5 7 6 7 7 7 6 7 8 8 8 7 7 7 8 7 7 6 7 6 6 6 5 5 5 5 5 5 4 3 4 3 3 3 3 2 3 3 2 2 2 2 2 2 3 3 3 3
7 6 6 5 4 3 3 2 1 2 2 3 3 3 2 1 2 2 4 2 2 2 2 2 3 3 3 4 4 4 5 4 3 4 3 3 3 3 4 2 4 5 5 6 6 7 6 6 7 8 8 6 6 6 7 6 5 5 5 5 4 4 5 5 4 4 4 4 4 4 3 3 3 2 3 3 3 3 2 2 2 2 3 3 3 4 3
Wind_Direction
266 270 275 280 278 266 270 269 268 265 253 243 242 248 255 265 254 267 293 299 268 252 262 238 241 229 215 216 227 240 193 184 177 176 178 177 161 144 125 104 87 70 68 62 56 54 50 45 43 39 29 32 30 24 21 20 14 16 3 351 336 328 322 314 326 320 303 285 280 262 243 230 232 240 238 235 235 232 225 225 228 205 205 220 215 213 213
271 267 262 260 256 259 257 256 259 258 258 258 252 252 251 254 258 263 272 275 264 261 282 279 305 305 289 345 94 144 191 196 187 193 192 178 166 149 121 99 85 73 62 55 52 54 43 35 29 27 29 19 17 8 13 7 1 0 348 344 335 332 326 327 314 301 297 285 275 272 260 253 248 238 235 239 239 227 226 235 236 229 222 240 230 216 210
265 264 264 257 251 260 260 257 257 257 259 257 251 256 257 261 264 267 269 263 258 257 270 267 227 183 166 186 201 201 211 201 193 197 190 178 168 148 128 101 85 79 76 63 55 43 42 29 18 16 15 10 5 358 356 349 351 348 338 331 322 318 314 314 307 291 280 277 277 273 275 272 261 251 243 227 216 223 228 234 239 233 230 231 233 225 218
267 258 254 255 261 263 261 259 254 253 250 250 250 249 241 239 252 260 259 259 263 258 244 243 260 263 250 250 246 233 211 203 197 201 188 175 163 148 125 110 89 64 56 46 30 25 21 18 9 11 357 353 353 343 345 336 333 329 326 310 307 305 305 302 299 298 296 289 278 277 274 270 265 257 244 234 226 224 225 218 214 221 217 216 208 194 203
271 281 263 274 298 289 267 249 234 236 243 250 258 256 250 243 249 255 252 261 289 9 29 290 268 268 272 264 249 229 218 210 202 188 174 158 145 125 111 91 86 63 36 35 30 11 353 9 353 355 347 338 341 336 331 325 324 314 303 299 298 301 299 297 297 298 295 292 288 279 271 266 261 253 245 237 230 226 228 218 209 217 219 213 207 203 190
272 225 247 260 267 255 264 45 41 236 256 258 257 258 260 263 254 263 282 291 306 291 289 274 274 275 276 284 268 241 203 187 187 160 150 140 129 126 109 90 66 55 27 9 8 358 340 341 341 330 321 324 322 315 309 308 303 300 294 287 277 277 281 286 292 293 291 290 288 284 275 265 256 250 240 234 230 230 230 221 217 213 214 208 202 188 166
266 254 159 258 251 258 73 116 79 95 312 300 280 284 308 312 298 289 284 277 276 280 264 263 268 44 124 165 186 179 185 175 163 152 153 140 116 89 105 49 15 17 7 349 339 324 327 335 315 311 318 325 321 316 316 310 305 299 294 291 289 280 277 279 283 285 284 286 283 282 281 277 269 257 247 237 227 225 225 221 209 209 205 196 186 159 139
265 256 244 252 252 42 32 77 130 118 243 247 266 259 141 48 42 324 311 336 316 298 244 216 190 182 143 154 151 166 171 173 153 154 123 65 34 14 1 357 349 342 346 333 323 324 318 303 315 316 319 319 315 311 309 303 300 298 298 297 292 291 285 284 281 282 279 279 279 276 274 271 267 262 249 238 231 223 224 221 211 206 200 189 153 132 124
251 253 258 257 297 284 258 242 229 309 290 271 261 267 184 84 42 2 353 354 352 3 99 149 193 186 200 190 118 140 154 143 113 45 14 19 347 354 341 347 335 332 321 317 325 313 304 313 311 313 315 313 309 305 300 297 296 295 294 289 288 287 285 281 281 279 281 278 276 276 274 271 265 261 255 243 231 224 221 217 202 185 162 141 129 123 117
238 261 265 263 257 261 281 83 91 71 27 348 290 293 260 111 72 29 352 342 347 339 349 74 240 228 227 223 174 114 104 98 66 18 347 343 348 340 338 334 323 323 327 315 311 312 309 305 303 304 310 308 303 295 290 288 288 287 287 287 288 289 287 286 281 280 277 277 274 273 270 269 266 261 256 248 241 215 214 206 182 153 137 119 109 109 111
248 249 260 261 268 274 49 105 73 68 43 283 269 251 244 65 0 33 357 315 343 326 335 336 287 242 241 229 149 82 32 22 2 332 323 329 330 322 321 322 323 321 315 313 305 301 298 299 306 308 306 304 294 287 284 284 284 284 283 283 287 288 290 289 288 284 282 277 276 273 273 270 269 263 256 249 215 147 193 164 125 118 118 117 111 107 108
252 258 254 261 255 280 60 359 71 53 72 66 253 255 239 5 3 336 344 321 336 326 331 323 286 265 260 253 129 43 348 339 333 324 327 326 323 318 320 321 321 318 303 290 287 293 298 301 304 305 304 296 289 281 278 279 280 279 280 283 287 288 287 287 286 284 278 275 270 269 268 270 263 261 150 111 135 165 123 119 112 107 102 107 110 112 116
247 239 257 267 269 279 74 45 51 66 197 262 246 255 32 335 339 335 341 307 310 330 326 310 273 267 303 325 329 321 315 312 320 328 319 312 312 316 319 322 325 305 303 296 292 293 294 297 297 298 295 288 283 283 283 282 280 281 285 287 287 287 287 286 283 279 278 274 272 268 266 263 264 174 144 126 118 122 120 113 114 113 113 113 113 111 116
256 258 259 256 271 69 93 84 72 95 213 236 263 36 260 302 318 340 321 317 299 297 305 306 297 294 301 301 309 307 308 316 315 312 314 312 311 308 306 310 302 299 298 296 289 285 285 289 291 289 287 284 285 287 287 284 285 288 288 288 288 289 288 287 285 279 274 273 269 271 267 255 191 146 127 127 128 126 126 126 122 120 117 118 120 118 118
256 252 261 263 258 105 33 33 184 55 283 327 349 285 313 308 324 318 316 307 302 295 293 297 299 296 297 299 298 299 298 301 305 307 308 309 308 308 308 302 304 303 298 294 291 288 285 284 285 284 282 282 283 283 280 284 287 290 293 293 291 291 289 287 284 278 274 269 265 260 246 209 150 138 132 125 120 122 124 122 121 123 124 124 127 132 140
264 258 245 264 4 102 35 354 300 346 303 320 314 305 288 307 313 304 301 294 290 295 292 295 293 295 294 292 291 292 295 295 297 300 299 299 300 300 299 299 298 299 291 288 285 281 278 279 281 281 279 281 285 288 288 293 294 291 288 289 291 290 288 284 280 277 276 271 261 242 197 157 132 145 134 128 127 126 129 131 134 136 142 147 147 149 150
290 279 293 324 301 293 309 314 305 303 311 307 306 300 293 293 296 293 289 287 290 289 288 287 288 288 284 286 290 290 292 293 292 293 296 296 295 292 288 288 289 286 285 285 280 277 275 277 278 276 274 276 282 283 288 290 289 290 291 291 288 286 285 283 281 274 266 261 237 209 180 139 136 130 130 133 132 138 142 143 141 136 136 137 131 123 122
274 275 270 280 283 284 291 289 287 291 289 292 293 291 290 286 291 296 290 294 290 288 288 286 280 278 281 282 282 284 286 289 292 290 289 287 285 284 284 281 277 278 278 275 273 273 273 274 278 280 277 276 279 282 286 285 286 287 287 288 287 286 285 282 275 264 243 202 184 155 124 130 133 136 136 140 140 140 135 126 123 122 124 122 123 125 123
295 272 197 249 282 298 297 296 295 287 282 280 282 287 292 294 292 289 292 292 293 290 287 282 280 278 278 279 279 280 280 279 282 284 284 284 284 283 281 280 280 276 276 277 276 274 275 278 279 278 277 277 277 282 282 282 283 286 289 288 287 282 277 265 245 190 156 164 131 104 113 111 114 119 122 127 123 120 120 118 114 112 112 115 113 114 114
262 275 288 291 291 286 292 291 288 285 290 291 288 289 290 292 293 290 288 289 283 283 280 281 281 282 281 279 279 278 280 282 282 282 281 282 281 278 278 280 279 279 278 276 275 275 278 280 281 282 283 281 285 284 282 285 289 290 288 287 282 270 230 192 173 154 130 117 115 118 119 120 119 116 114 114 112 108 119 124 130 130 128 125 132 135 129
284 282 275 280 299 295 286 284 284 291 294 299 298 293 289 287 289 288 285 280 280 279 279 281 279 279 279 277 277 277 278 279 280 281 285 286 285 286 283 280 278 278 280 281 282 282 281 282 284 284 284 291 294 289 289 293 292 291 288 277 234 168 151 140 128 117 122 128 121 122 118 113 112 112 122 122 110 97 75 107 119 125 123 108 108 109 114
279 290 312 329 306 299 302 298 298 298 297 295 295 297 293 291 288 288 286 282 278 277 276 275 276 275 275 276 277 276 277 278 280 284 286 287 287 284 283 281 279 278 276 275 275 276 278 281 283 286 291 295 285 286 296 291 287 289 225 162 142 134 132 129 132 130 120 113 107 117 124 121 106 76 43 43 61 98 85 65 63 54 68 103 102 110 90
291 308 305 303 296 290 287 292 295 297 298 300 300 295 290 289 286 286 287 289 284 276 272 269 269 269 272 273 274 275 277 278 281 285 287 287 287 285 284 283 279 276 277 277 275 274 276 279 280 281 292 279 276 292 290 282 310 136 146 129 112 105 108 121 114 103 101 97 100 101 116 124 120 106 93 57 43 46 62 89 92 89 86 77 62 60 105
289 293 304 305 297 295 298 298 297 295 299 302 297 291 288 288 293 296 293 289 287 285 282 279 275 274 274 275 275 275 277 279 280 281 282 284 285 286 284 279 278 278 276 273 271 272 277 277 277 293 292 197 164 125 111 102 118 123 117 107 99 93 99 102 97 106 108 101 111 106 102 107 112 118 111 107 82 44 39 49 78 97 98 92 87 81 69
302 307 303 301 298 296 293 292 292 293 295 295 292 294 297 296 292 292 288 287 285 284 282 279 275 274 275 275 274 274 276 279 281 283 286 285 282 279 276 275 273 274 274 274 276 275 273 274 279 291 180 156 135 121 103 85 79 72 75 84 86 78 78 79 85 93 100 109 107 108 120 119 122 123 124 123 121 116 61 47 49 50 67 89 95 89 85
296 300 301 300 299 296 296 293 287 286 291 299 301 299 298 297 298 293 287 287 285 280 279 280 279 276 273 273 273 274 276 276 283 291 286 282 281 278 273 271 274 274 276 275 273 271 267 268 271 268 161 155 140 128 114 106 77 68 88 103 110 117 118 117 121 122 123 129 127 128 130 134 133 135 136 136 138 133 135 130 103 71 55 53 102 112 89
301 300 302 299 294 292 295 295 299 306 305 301 298 298 298 298 298 290 291 289 286 282 276 273 272 277 279 278 278 277 279 286 289 285 280 280 277 277 282 285 286 285 284 278 273 271 274 276 270 222 158 151 143 140 143 116 88 79 96 124 105 53 49 140 142 143 143 142 143 146 148 146 143 144 144 149 146 153 157 159 160 162 168 169 184 216 165
303 307 302 291 290 291 291 291 293 295 296 295 295 297 298 300 297 290 286 285 280 275 275 279 283 286 283 281 283 287 287 280 276 283 289 288 294 295 290 289 287 281 277 274 269 266 260 249 240 192 153 147 145 154 154 122 105 116 119 122 120 140 147 4 145 149 153 157 161 161 159 152 149 144 151 156 168 171 168 174 171 169 164 167 171 172 219
309 308 305 296 291 289 289 290 289 292 295 298 298 295 293 291 288 287 290 291 290 296 293 292 291 291 295 296 298 294 297 307 312 304 300 295 291 287 285 283 278 273 270 268 264 255 245 236 216 161 150 143 145 159 162 136 133 170 159 144 146 148 158 171 183 167 162 168 178 172 158 142 142 144 154 158 168 159 166 178 177 175 169 153 155 162 203
307 304 299 296 294 295 297 295 298 299 298 300 303 302 301 299 298 299 298 299 309 311 313 318 325 357 15 353 350 342 331 320 314 308 304 305 304 303 298 294 289 273 260 253 250 245 232 219 164 155 149 144 152 167 159 160 172 197 202 193 178 172 177 163 166 183 229 274 201 179 179 165 157 161 169 170 173 190 204 193 196 191 177 172 186 190 189
300 297 293 290 289 293 299 301 298 297 297 300 307 306 307 306 302 299 312 344 5 3 24 27 24 16 19 14 3 1 350 348 352 1 0 354 348 338 328 304 284 263 272 304 272 234 217 159 142 137 140 149 153 157 161 166 187 209 222 216 219 133 123 140 165 165 180 211 224 197 189 188 179 180 186 191 194 213 217 201 199 201 188 174 196 162 65
296 294 293 294 302 310 308 303 303 303 307 312 314 316 315 316 322 348 26 42 34 29 29 32 29 23 15 17 25 32 36 34 28 23 18 16 15 15 12 18 44 57 51 38 37 59 121 133 129 124 124 131 144 149 161 163 188 200 217 217 220 167 166 159 169 155 157 184 219 199 189 192 185 188 195 205 213 219 228 221 205 198 182 170 147 87 55
293 301 311 316 317 310 306 306 309 312 316 312 318 336 12 39 44 45 43 46 46 40 40 38 36 37 39 38 33 27 24 34 40 33 22 13 7 9 19 20 42 57 53 40 43 53 75 103 114 112 111 113 102 124 169 194 197 222 223 204 163 130 143 168 153 153 160 181 205 189 184 186 178 183 102 93 312 290 263 233 172 140 126 112 92 78 57
297 299 304 307 312 313 313 310 308 306 304 320 36 49 50 50 49 52 56 56 57 54 47 44 44 44 42 37 39 39 35 40 37 27 19 17 13 3 1 25 42 56 52 44 43 48 57 69 75 71 68 71 76 82 106 119 121 111 125 120 117 124 131 133 147 160 154 150 114 94 100 96 94 87 96 79 65 65 72 83 74 80 95 92 95 103 91
296 305 304 304 308 310 316 307 302 296 298 72 70 64 64 66 67 64 60 59 56 52 48 43 41 36 35 36 37 38 40 41 34 29 19 15 10 7 8 35 54 57 52 43 40 41 43 48 63 69 59 63 64 62 73 98 107 107 102 101 99 107 101 99 97 100 112 115 110 105 98 94 88 77 69 72 87 84 71 55 43 38 43 52 59 67 100
318 317 313 316 326 329 328 346 43 68 78 77 74 72 67 65 68 74 72 67 61 56 52 41 27 29 32 30 34 32 37 39 38 32 27 18 12 10 29 43 48 57 59 50 36 40 49 52 50 56 63 54 48 43 35 57 89 80 93 100 103 90 79 74 77 76 72 82 79 77 72 70 67 59 58 75 66 62 62 58 43 38 38 34 25 13 2
338 335 341 13 44 52 57 60 67 79 81 81 81 77 73 69 70 72 75 73 66 57 45 27 24 33 34 29 27 28 32 37 40 41 35 31 27 34 37 40 38 47 56 47 22 30 43 43 43 54 65 62 54 46 29 20 75 84 87 73 73 74 79 78 73 76 75 74 79 84 87 87 76 73 60 57 58 53 44 47 40 33 32 23 13 352 353
28 37 48 61 67 66 67 68 72 83 91 89 82 78 76 77 72 72 71 67 57 40 30 37 45 43 42 38 37 34 27 23 25 24 25 30 31 41 40 39 35 41 46 34 17 33 43 43 49 56 56 54 50 49 32 27 46 68 67 61 62 67 70 77 77 75 75 75 70 68 66 64 69 66 59 57 58 53 46 44 38 23 20 14 3 357 356
61 63 65 67 69 73 71 63 56 76 83 87 89 84 81 79 80 81 78 68 56 50 49 47 44 41 34 40 44 39 32 23 21 24 25 20 20 43 46 40 40 43 45 37 38 40 37 43 52 54 51 48 47 45 31 29 33 56 60 63 61 63 64 76 79 79 70 66 63 67 69 65 63 63 59 56 54 57 55 46 32 22 18 9 1 5 4
70 69 68 69 69 69 68 65 65 70 73 70 79 84 85 82 78 74 69 63 51 50 57 59 54 52 47 46 44 39 28 22 20 18 18 9 9 29 47 41 33 33 32 36 43 44 38 43 53 54 50 41 32 31 28 33 45 53 56 58 62 65 64 63 69 72 75 78 82 78 75 71 67 65 65 64 62 54 46 42 36 29 23 18 14 10 6
80 83 84 84 86 88 83 79 78 72 58 51 57 61 62 69 73 68 62 57 48 43 46 47 60 59 57 58 58 57 50 42 36 31 26 25 27 30 39 36 20 21 21 29 37 40 41 43 40 45 48 45 35 17 44 49 58 67 67 65 63 62 64 62 64 65 67 68 67 69 75 76 74 71 65 64 59 57 54 45 42 34 28 20 17 11 9
96 104 103 97 92 90 90 89 86 76 70 69 69 68 67 66 69 73 71 66 58 55 57 52 39 43 54 60 65 63 60 53 48 45 42 39 29 29 41 38 21 22 4 19 33 36 38 41 40 37 38 44 47 8 21 63 64 66 68 67 69 68 70 71 73 73 74 73 73 74 72 72 73 71 68 66 64 59 53 49 48 40 34 30 26 21 14
115 117 111 102 94 89 90 93 92 87 84 82 83 79 73 76 76 78 77 73 71 70 65 63 60 54 52 54 55 54 51 62 67 62 57 52 46 44 47 43 34 25 9 36 36 44 40 42 39 44 20 23 23 358 50 64 63 63 66 65 66 65 66 66 69 73 74 75 74 73 70 71 71 71 68 67 65 60 55 51 46 39 35 30 27 21 17
111 116 116 113 117 119 117 108 100 96 87 77 67 65 69 70 69 70 70 71 67 61 60 58 53 53 50 48 48 47 41 33 39 53 65 68 58 46 38 36 35 29 20 39 42 45 44 42 41 20 17 17 15 26 49 58 64 66 67 66 67 67 68 69 69 69 71 73 75 75 73 70 68 65 62 60 59 57 52 45 40 34 29 26 23 21 17
131 135 136 129 125 123 116 109 103 96 92 90 78 73 74 75 71 68 66 63 59 54 51 49 48 47 49 49 51 52 51 46 39 37 49 51 51 44 33 43 41 43 29 28 52 44 45 41 20 8 10 10 21 33 58 61 63 65 65 65 66 68 69 70 71 72 74 76 75 74 70 68 66 65 66 59 52 52 47 42 41 34 30 24 23 17 15
142 154 149 149 146 134 119 111 109 115 113 108 98 85 79 79 78 74 69 66 64 56 49 42 37 32 27 34 66 74 70 63 61 60 60 56 59 57 45 46 52 50 46 46 52 49 48 22 13 10 5 6 21 50 56 58 62 67 68 68 68 68 70 70 68 69 66 66 67 67 65 63 62 60 57 55 52 50 48 29 33 33 26 15 9 3 353
148 161 167 171 166 144 131 130 143 141 128 119 105 98 90 86 84 83 79 74 71 68 61 53 46 39 35 32 22 25 48 67 68 59 66 74 79 75 73 65 56 51 55 54 55 52 45 31 11 2 357 4 33 53 53 56 58 63 65 69 70 72 71 68 65 67 67 66 67 68 61 56 58 63 61 56 53 42 40 33 31 20 13 0 350 350 354
158 153 148 176 184 163 163 170 173 157 135 103 100 107 110 104 98 93 95 91 83 73 65 59 55 48 40 39 43 35 19 24 66 66 60 68 67 64 53 44 24 349 62 88 76 59 40 22 8 0 1 24 59 60 61 58 60 59 63 61 63 67 70 65 62 65 67 68 65 64 66 68 65 60 58 54 49 42 34 21 17 11 4 359 359 358 356
159 162 169 187 187 190 186 178 162 153 132 126 132 115 123 125 123 114 108 111 113 97 81 69 63 62 63 53 43 47 47 38 49 65 51 46 53 53 59 58 39 27 51 54 58 61 47 28 16 14 37 48 57 60 62 64 63 64 63 63 66 63 61 58 57 62 63 57 58 60 63 61 59 59 61 56 53 48 33 20 13 11 7 352 357 359 355
172 175 183 198 200 197 185 175 175 148 138 162 143 140 158 186 153 116 116 96 71 72 79 68 64 60 55 56 57 57 57 58 67 72 70 64 67 69 62 52 50 40 35 42 45 49 58 45 42 36 40 50 52 55 57 59 60 54 59 58 60 67 58 58 63 54 52 61 61 62 59 58 62 57 31 46 46 43 43 30 17 30 289 293 351 352 358
180 189 192 193 196 190 192 194 145 154 163 160 154 146 179 191 90 119 127 126 154 124 97 102 86 82 82 78 78 73 77 82 63 43 70 85 76 62 50 67 62 46 47 48 51 47 46 40 32 32 47 53 54 52 46 46 58 62 58 57 54 53 58 53 49 53 51 47 55 57 48 49 42 21 16 39 31 26 20 11 352 348 352 4 7 6 1
186 189 188 189 195 187 207 220 228 211 184 176 176 183 197 151 145 154 127 230 267 106 108 96 96 74 70 91 86 77 63 45 63 89 83 93 103 108 103 62 63 67 54 52 55 55 54 62 59 38 33 47 53 58 64 50 43 51 51 50 49 59 47 38 49 53 43 30 38 50 43 21 2 18 35 27 20 14 11 9 3 359 6 4 14 2 351